����,���ϕ���(m/s),���ϕ���,�ő�u�ԕ���(m/s),�ő啗��������,�C��(��),���x(%),10���Ԉړ��ώZ�J��(mm),1���Ԉړ��ώZ�J��(mm),���J��(mm),�݌v�J��(mm),����(���ώZ)(MJ/m2),����(���ώZ)(min),���n�C��(hPa),�C�ʋC��(hPa)
2020-12-14T00:00:00+09:00,2.3,��쓌,10.3,��,7,65,0,0,0,0,4.06,62,998.9,1013.1
2020-12-14T00:01:00+09:00,2.3,��쓌,10.3,��,6.9,64.8,0,0,0,0,0,0,998.9,1013.1
2020-12-14T00:02:00+09:00,2.4,��쓌,10.3,��,6.8,64.9,0,0,0,0,0,0,998.9,1013.1
2020-12-14T00:03:00+09:00,2.4,��쓌,10.3,��,6.8,65,0,0,0,0,0,0,998.8,1013
2020-12-14T00:04:00+09:00,2.4,��쓌,10.3,��,6.9,65.3,0,0,0,0,0,0,998.9,1013.1
2020-12-14T00:05:00+09:00,2.5,��쓌,10.3,��,6.8,65.2,0,0,0,0,0,0,998.8,1013
2020-12-14T00:06:00+09:00,2.7,��쓌,10.3,��,6.8,65.2,0,0,0,0,0,0,998.8,1013
2020-12-14T00:07:00+09:00,2.7,��쓌,10.3,��,6.9,65.5,0,0,0,0,0,0,998.6,1012.8
2020-12-14T00:08:00+09:00,2.5,��쓌,10.3,��,6.9,65.4,0,0,0,0,0,0,998.5,1012.7
2020-12-14T00:09:00+09:00,2.3,��쓌,7.8,��,7.1,65.3,0,0,0,0,0,0,998.5,1012.7
2020-12-14T00:10:00+09:00,2.1,��쓌,7.8,��,7,64.9,0,0,0,0,0,0,998.5,1012.7
2020-12-14T00:11:00+09:00,2.1,��쓌,7.8,��,7.1,64.7,0,0,0,0,0,0,998.5,1012.7
2020-12-14T00:12:00+09:00,2.1,��쓌,7.8,��,6.9,64.5,0,0,0,0,0,0,998.5,1012.7
2020-12-14T00:13:00+09:00,2.2,��쓌,7.8,��,6.8,64.6,0,0,0,0,0,0,998.5,1012.7
2020-12-14T00:14:00+09:00,2.1,��,7.8,��,6.8,64.9,0,0,0,0,0,0,998.4,1012.6
2020-12-14T00:15:00+09:00,2.1,��,7.8,��,6.8,65.1,0,0,0,0,0,0,998.4,1012.6
2020-12-14T00:16:00+09:00,2.1,��쓌,6.1,��,6.9,65.3,0,0,0,0,0,0,998.4,1012.6
2020-12-14T00:17:00+09:00,2,��쓌,6.1,��,7,65.1,0,0,0,0,0,0,998.5,1012.7
2020-12-14T00:18:00+09:00,2,��쓌,6.1,��,7,64.9,0,0,0,0,0,0,998.4,1012.6
2020-12-14T00:19:00+09:00,2.1,��쓌,7.7,��,7.1,64.8,0,0,0,0,0,0,998.4,1012.6
2020-12-14T00:20:00+09:00,2.2,��쓌,7.7,��,7.1,64.7,0,0,0,0,0,0,998.5,1012.7
2020-12-14T00:21:00+09:00,2.3,��쓌,7.7,��,7.2,64.4,0,0,0,0,0,0,998.5,1012.7
2020-12-14T00:22:00+09:00,2.2,��쓌,7.7,��,7.1,64.2,0,0,0,0,0,0,998.4,1012.6
2020-12-14T00:23:00+09:00,2.1,��쓌,7.7,��,7.1,64.1,0,0,0,0,0,0,998.5,1012.7
2020-12-14T00:24:00+09:00,2.3,��쓌,7.7,��,7.3,64.1,0,0,0,0,0,0,998.6,1012.8
2020-12-14T00:25:00+09:00,2.3,��쓌,7.7,��,7.4,63.8,0,0,0,0,0,0,998.5,1012.7
2020-12-14T00:26:00+09:00,2.3,��쓌,7.7,��,7.3,63.2,0,0,0,0,0,0,998.4,1012.6
2020-12-14T00:27:00+09:00,2.3,��쓌,7.7,��,7.3,63.1,0,0,0,0,0,0,998.5,1012.7
2020-12-14T00:28:00+09:00,2.3,��쓌,7.7,��,7.3,63,0,0,0,0,0,0,998.4,1012.6
2020-12-14T00:29:00+09:00,2.2,��쓌,6.2,��쓌,7.4,63.1,0,0,0,0,0,0,998.5,1012.7
2020-12-14T00:30:00+09:00,2.1,��쓌,6.2,��쓌,7.4,62.9,0,0,0,0,0,0,998.4,1012.6
2020-12-14T00:31:00+09:00,2.1,��쓌,6.2,��쓌,7.3,62.8,0,0,0,0,0,0,998.4,1012.6
2020-12-14T00:32:00+09:00,2.1,��쓌,6.2,��쓌,7.3,62.7,0,0,0,0,0,0,998.4,1012.6
2020-12-14T00:33:00+09:00,2.1,�쓌,6.2,��쓌,7.4,62.8,0,0,0,0,0,0,998.3,1012.5
2020-12-14T00:34:00+09:00,2.1,�쓌,5.7,�쓌,7.5,62.6,0,0,0,0,0,0,998.4,1012.6
2020-12-14T00:35:00+09:00,2.1,�쓌,5.7,�쓌,7.6,62.4,0,0,0,0,0,0,998.4,1012.6
2020-12-14T00:36:00+09:00,2.1,�쓌,5.7,�쓌,7.5,61.9,0,0,0,0,0,0,998.4,1012.6
2020-12-14T00:37:00+09:00,2,�쓌,5.7,�쓌,7.4,61.8,0,0,0,0,0,0,998.4,1012.6
2020-12-14T00:38:00+09:00,1.9,�쓌,5.7,�쓌,7.4,61.9,0,0,0,0,0,0,998.4,1012.6
2020-12-14T00:39:00+09:00,1.9,�쓌,5.8,��쓌,7.5,62.2,0,0,0,0,0,0,998.3,1012.5
2020-12-14T00:40:00+09:00,1.9,��쓌,5.8,��쓌,7.6,62,0,0,0,0,0,0,998.4,1012.6
2020-12-14T00:41:00+09:00,1.9,��쓌,5.8,��쓌,7.7,61.8,0,0,0,0,0,0,998.4,1012.6
2020-12-14T00:42:00+09:00,2,��쓌,5.8,��쓌,7.6,61.5,0,0,0,0,0,0,998.4,1012.6
2020-12-14T00:43:00+09:00,1.9,��쓌,5.8,��쓌,7.6,61.4,0,0,0,0,0,0,998.4,1012.6
2020-12-14T00:44:00+09:00,1.8,��,5.8,��쓌,7.6,61.4,0,0,0,0,0,0,998.3,1012.5
2020-12-14T00:45:00+09:00,1.8,��,5.8,��쓌,7.7,61.4,0,0,0,0,0,0,998.4,1012.6
2020-12-14T00:46:00+09:00,1.9,��,5.8,��쓌,7.7,61,0,0,0,0,0,0,998.4,1012.6
2020-12-14T00:47:00+09:00,1.9,��,5.8,��쓌,7.7,60.9,0,0,0,0,0,0,998.4,1012.6
2020-12-14T00:48:00+09:00,2.1,��,5.8,��쓌,7.7,60.8,0,0,0,0,0,0,998.4,1012.6
2020-12-14T00:49:00+09:00,2,��,4.6,��쐼,7.6,60.7,0,0,0,0,0,0,998.5,1012.7
2020-12-14T00:50:00+09:00,2,��,4.6,��쐼,7.5,60.8,0,0,0,0,0,0,998.5,1012.7
2020-12-14T00:51:00+09:00,1.8,��,4.6,��쐼,7.6,61,0,0,0,0,0,0,998.5,1012.7
2020-12-14T00:52:00+09:00,2.1,��,6.6,��,7.9,61.2,0,0,0,0,0,0,998.5,1012.6
2020-12-14T00:53:00+09:00,2.2,��쐼,6.6,��,8.1,60.7,0,0,0,0,0,0,998.5,1012.6
2020-12-14T00:54:00+09:00,2.2,��쐼,6.6,��,7.9,59.7,0,0,0,0,0,0,998.5,1012.6
2020-12-14T00:55:00+09:00,2.1,��쐼,6.6,��,7.5,59.4,0,0,0,0,0,0,998.5,1012.7
2020-12-14T00:56:00+09:00,2.2,��쐼,6.6,��,7.7,60.1,0,0,0,0,0,0,998.5,1012.7
2020-12-14T00:57:00+09:00,2.3,��쐼,6.6,��,7.8,60.4,0,0,0,0,0,0,998.5,1012.7
2020-12-14T00:58:00+09:00,2.5,��쐼,7.5,��쐼,8.1,60.2,0,0,0,0,0,0,998.6,1012.7
2020-12-14T00:59:00+09:00,2.7,��쐼,7.5,��쐼,8.2,59.8,0,0,0,0,0,0,998.6,1012.7
2020-12-14T01:00:00+09:00,3,��쐼,7.5,��쐼,8.2,59.1,0,0,0,0,0,0,998.6,1012.7
2020-12-14T01:01:00+09:00,3.2,��쐼,7.5,��쐼,7.9,58.8,0,0,0,0,0,0,998.6,1012.8
2020-12-14T01:02:00+09:00,3.1,��쐼,7.5,��쐼,7.8,58.8,0,0,0,0,0,0,998.7,1012.9
2020-12-14T01:03:00+09:00,3.3,��쐼,7.5,��쐼,7.6,59.3,0,0,0,0,0,0,998.7,1012.9
2020-12-14T01:04:00+09:00,3.6,��쐼,9,��,7.6,59.9,0,0,0,0,0,0,998.7,1012.9
2020-12-14T01:05:00+09:00,4,��쐼,9,��,7.7,60.4,0,0,0,0,0,0,998.9,1013.1
2020-12-14T01:06:00+09:00,4,��쐼,9,��,7.6,60.5,0,0,0,0,0,0,998.8,1013
2020-12-14T01:07:00+09:00,4.1,��쐼,9,��,7.6,60.6,0,0,0,0,0,0,998.8,1013
2020-12-14T01:08:00+09:00,4,��,9,��,7.5,61,0,0,0,0,0,0,998.8,1013
2020-12-14T01:09:00+09:00,4,��,9,��,7.5,61.4,0,0,0,0,0,0,998.8,1013
2020-12-14T01:10:00+09:00,4,��,9,��,7.4,61.7,0,0,0,0,0,0,998.8,1013
2020-12-14T01:11:00+09:00,4.1,��,9,��,7.4,62,0,0,0,0,0,0,998.8,1013
2020-12-14T01:12:00+09:00,4.3,��,9,��,7.4,62.2,0,0,0,0,0,0,998.8,1013
2020-12-14T01:13:00+09:00,4.4,��,9,��,7.3,62.4,0,0,0,0,0,0,998.9,1013.1
2020-12-14T01:14:00+09:00,4.4,��,8.2,��,7.4,62.7,0,0,0,0,0,0,998.9,1013.1
2020-12-14T01:15:00+09:00,4.4,��,8.2,��,7.4,62.8,0,0,0,0,0,0,998.8,1013
2020-12-14T01:16:00+09:00,4.6,��,8.2,��,7.4,62.8,0,0,0,0,0,0,998.9,1013.1
2020-12-14T01:17:00+09:00,4.7,��,8.2,��,7.4,62.9,0,0,0,0,0,0,998.8,1013
2020-12-14T01:18:00+09:00,4.9,��,8.2,��,7.5,62.9,0,0,0,0,0,0,998.8,1013
2020-12-14T01:19:00+09:00,4.9,��,8.2,��,7.4,62.8,0,0,0,0,0,0,998.8,1013
2020-12-14T01:20:00+09:00,4.9,��,8.2,��,7.5,62.8,0,0,0,0,0,0,998.8,1013
2020-12-14T01:21:00+09:00,4.7,��,8.2,��,7.5,62.7,0,0,0,0,0,0,998.9,1013.1
2020-12-14T01:22:00+09:00,4.5,��,8.2,��,7.5,62.6,0,0,0,0,0,0,998.9,1013.1
2020-12-14T01:23:00+09:00,4.4,��,7.6,��,7.5,62.5,0,0,0,0,0,0,998.9,1013.1
2020-12-14T01:24:00+09:00,4.3,��,7.5,��,7.5,62.4,0,0,0,0,0,0,999,1013.2
2020-12-14T01:25:00+09:00,4,��,7.5,��,7.6,62.4,0,0,0,0,0,0,999,1013.2
2020-12-14T01:26:00+09:00,3.9,��,7.1,��,7.7,62.3,0,0,0,0,0,0,999,1013.2
2020-12-14T01:27:00+09:00,3.8,��,6.6,��,7.8,62.2,0,0,0,0,0,0,999,1013.2
2020-12-14T01:28:00+09:00,3.6,��,6.3,��,7.7,62,0,0,0,0,0,0,999,1013.2
2020-12-14T01:29:00+09:00,3.7,��,6.8,��,7.7,61.8,0,0,0,0,0,0,999,1013.2
2020-12-14T01:30:00+09:00,3.8,��,6.8,��,7.7,61.7,0,0,0,0,0,0,999,1013.2
2020-12-14T01:31:00+09:00,3.7,��,6.8,��,7.7,61.6,0,0,0,0,0,0,999.1,1013.3
2020-12-14T01:32:00+09:00,3.6,��,6.8,��,7.7,61.6,0,0,0,0,0,0,999.1,1013.3
2020-12-14T01:33:00+09:00,3.5,��,6.8,��,7.8,61.6,0,0,0,0,0,0,999,1013.2
2020-12-14T01:34:00+09:00,3.3,��,6.8,��,7.8,61.4,0,0,0,0,0,0,999,1013.2
2020-12-14T01:35:00+09:00,3.2,��,6.8,��,7.8,61.3,0,0,0,0,0,0,999,1013.2
2020-12-14T01:36:00+09:00,3.2,��,6.8,��,7.9,61.1,0,0,0,0,0,0,999,1013.2
2020-12-14T01:37:00+09:00,3.1,��,6.8,��,7.9,61,0,0,0,0,0,0,999.1,1013.3
2020-12-14T01:38:00+09:00,3.1,��,6.8,��,7.9,60.9,0,0,0,0,0,0,999.1,1013.3
2020-12-14T01:39:00+09:00,2.9,��,6.2,��,7.9,60.8,0,0,0,0,0,0,999.1,1013.3
2020-12-14T01:40:00+09:00,2.5,��,5.8,��,7.9,60.8,0,0,0,0,0,0,999,1013.2
2020-12-14T01:41:00+09:00,2.5,��,5.8,��,8,61,0,0,0,0,0,0,999,1013.2
2020-12-14T01:42:00+09:00,2.5,��쐼,5.8,��,8,60.8,0,0,0,0,0,0,999,1013.2
2020-12-14T01:43:00+09:00,2.4,��쐼,5.8,��,7.9,60.6,0,0,0,0,0,0,999.1,1013.3
2020-12-14T01:44:00+09:00,2.3,��쐼,5.8,��,7.9,60.7,0,0,0,0,0,0,999,1013.2
2020-12-14T01:45:00+09:00,2.1,��쐼,5.8,��,7.8,60.8,0,0,0,0,0,0,999.1,1013.3
2020-12-14T01:46:00+09:00,2,��쐼,5.8,��,7.8,61.1,0,0,0,0,0,0,999.1,1013.3
2020-12-14T01:47:00+09:00,1.9,��쐼,5.5,��,7.9,61.3,0,0,0,0,0,0,999,1013.2
2020-12-14T01:48:00+09:00,1.8,��쐼,5.5,��,8,61.1,0,0,0,0,0,0,999.1,1013.3
2020-12-14T01:49:00+09:00,1.7,�쐼,5.5,��,8,61,0,0,0,0,0,0,999.1,1013.3
2020-12-14T01:50:00+09:00,1.7,�쐼,5.5,��,7.9,60.7,0,0,0,0,0,0,999.2,1013.4
2020-12-14T01:51:00+09:00,1.8,��쐼,5.5,��,8,60.8,0,0,0,0,0,0,999.1,1013.3
2020-12-14T01:52:00+09:00,1.6,��쐼,5.4,��쐼,8,60.6,0,0,0,0,0,0,999.1,1013.3
2020-12-14T01:53:00+09:00,1.7,��쐼,5.4,��쐼,8,60.5,0,0,0,0,0,0,999.2,1013.4
2020-12-14T01:54:00+09:00,1.8,��쐼,5.4,��쐼,8,60.4,0,0,0,0,0,0,999.2,1013.4
2020-12-14T01:55:00+09:00,2,��쐼,5.4,��쐼,8,60.5,0,0,0,0,0,0,999.1,1013.3
2020-12-14T01:56:00+09:00,2,��쐼,5.4,��쐼,8,60.5,0,0,0,0,0,0,999.1,1013.3
2020-12-14T01:57:00+09:00,2,��쐼,5.4,��쐼,8.2,60.5,0,0,0,0,0,0,999.1,1013.2
2020-12-14T01:58:00+09:00,2.1,��쐼,5.4,��쐼,8.2,60.3,0,0,0,0,0,0,999.1,1013.2
2020-12-14T01:59:00+09:00,2.1,��쐼,5.6,��쐼,8.2,60.2,0,0,0,0,0,0,999,1013.1
2020-12-14T02:00:00+09:00,2.3,��쐼,5.6,��쐼,8.2,60.1,0,0,0,0,0,0,999.1,1013.2
2020-12-14T02:01:00+09:00,2.3,��쐼,5.6,��쐼,8.2,60,0,0,0,0,0,0,999.1,1013.2
2020-12-14T02:02:00+09:00,2.3,��쐼,5.6,��쐼,8.2,59.9,0,0,0,0,0,0,999,1013.1
2020-12-14T02:03:00+09:00,2.2,��,5.6,��쐼,8.1,59.9,0,0,0,0,0,0,999,1013.1
2020-12-14T02:04:00+09:00,2.4,��,5.6,��쐼,8.2,60.1,0,0,0,0,0,0,999,1013.1
2020-12-14T02:05:00+09:00,2.3,��,5.6,��쐼,8.3,60,0,0,0,0,0,0,999,1013.1
2020-12-14T02:06:00+09:00,2.3,��쐼,5.6,��쐼,8.2,59.7,0,0,0,0,0,0,999,1013.1
2020-12-14T02:07:00+09:00,2.2,��쐼,5.6,��쐼,8,59.7,0,0,0,0,0,0,999,1013.2
2020-12-14T02:08:00+09:00,2,��쐼,5.6,��쐼,7.9,60.1,0,0,0,0,0,0,999,1013.2
2020-12-14T02:09:00+09:00,1.8,��쐼,5.6,��,8.1,60.6,0,0,0,0,0,0,998.9,1013
2020-12-14T02:10:00+09:00,1.6,��,5.6,��,8.2,60.6,0,0,0,0,0,0,998.9,1013
2020-12-14T02:11:00+09:00,1.6,��,5.6,��,8.2,60.3,0,0,0,0,0,0,998.9,1013
2020-12-14T02:12:00+09:00,1.5,��,5.6,��,8.3,60.3,0,0,0,0,0,0,998.8,1012.9
2020-12-14T02:13:00+09:00,1.6,��,5.6,��,8.3,60.3,0,0,0,0,0,0,998.8,1012.9
2020-12-14T02:14:00+09:00,1.4,��,4.1,��,8.2,60.1,0,0,0,0,0,0,998.8,1012.9
2020-12-14T02:15:00+09:00,1.3,��쐼,3.8,��쐼,8,60.2,0,0,0,0,0,0,998.9,1013
2020-12-14T02:16:00+09:00,1.3,��쐼,3.8,��쐼,7.9,60.5,0,0,0,0,0,0,998.9,1013.1
2020-12-14T02:17:00+09:00,1.3,��쐼,3.8,��쐼,7.9,60.8,0,0,0,0,0,0,998.9,1013.1
2020-12-14T02:18:00+09:00,1.3,��쐼,3.8,��쐼,7.9,61.1,0,0,0,0,0,0,998.9,1013.1
2020-12-14T02:19:00+09:00,1.3,��쐼,3.8,��쐼,8.2,61.5,0,0,0,0,0,0,999,1013.1
2020-12-14T02:20:00+09:00,1.2,�쐼,3.8,��쐼,8,61.1,0,0,0,0,0,0,998.9,1013
2020-12-14T02:21:00+09:00,1.2,�쐼,3.8,��쐼,8,61.1,0,0,0,0,0,0,998.9,1013
2020-12-14T02:22:00+09:00,1.1,�쐼,3.8,��쐼,8.1,61.5,0,0,0,0,0,0,998.9,1013
2020-12-14T02:23:00+09:00,1,�쐼,3.2,���쐼,8,61.4,0,0,0,0,0,0,998.9,1013
2020-12-14T02:24:00+09:00,1,�쐼,3.2,���쐼,7.5,61.2,0,0,0,0,0,0,998.9,1013.1
2020-12-14T02:25:00+09:00,0.9,���쐼,2.8,���쐼,7.4,62.1,0,0,0,0,0,0,998.8,1013
2020-12-14T02:26:00+09:00,0.7,���쐼,2.4,���k��,7.5,63,0,0,0,0,0,0,998.8,1013
2020-12-14T02:27:00+09:00,0.8,�쐼,2.3,��,7.7,63.6,0,0,0,0,0,0,998.7,1012.9
2020-12-14T02:28:00+09:00,0.8,�쐼,2.8,��쐼,8,63.9,0,0,0,0,0,0,998.8,1012.9
2020-12-14T02:29:00+09:00,0.8,�쐼,2.8,��쐼,8.2,63.4,0,0,0,0,0,0,998.9,1013
2020-12-14T02:30:00+09:00,0.9,�쐼,2.8,��쐼,7.9,62.6,0,0,0,0,0,0,998.9,1013.1
2020-12-14T02:31:00+09:00,0.9,���쐼,2.8,��쐼,7.4,62.3,0,0,0,0,0,0,998.9,1013.1
2020-12-14T02:32:00+09:00,1,���쐼,2.8,��쐼,7.4,63,0,0,0,0,0,0,998.9,1013.1
2020-12-14T02:33:00+09:00,1.1,���쐼,2.8,��쐼,7.3,63.8,0,0,0,0,0,0,999,1013.2
2020-12-14T02:34:00+09:00,1.2,���쐼,2.8,��쐼,7.4,64.4,0,0,0,0,0,0,999,1013.2
2020-12-14T02:35:00+09:00,1.2,���쐼,2.8,��쐼,7.3,64.9,0,0,0,0,0,0,998.9,1013.1
2020-12-14T02:36:00+09:00,1.2,���쐼,2.8,��쐼,7.1,65,0,0,0,0,0,0,999,1013.2
2020-12-14T02:37:00+09:00,1.2,��,2.8,��쐼,7.2,65.7,0,0,0,0,0,0,999,1013.2
2020-12-14T02:38:00+09:00,1.1,��,2.6,���k��,7.4,66.1,0,0,0,0,0,0,998.9,1013.1
2020-12-14T02:39:00+09:00,1.1,��,2.6,���k��,7.5,66.1,0,0,0,0,0,0,998.8,1013
2020-12-14T02:40:00+09:00,1.1,��,2.6,���k��,7.7,65.9,0,0,0,0,0,0,998.8,1013
2020-12-14T02:41:00+09:00,1.1,���쐼,2.7,�쐼,7.9,65.7,0,0,0,0,0,0,998.8,1013
2020-12-14T02:42:00+09:00,1.2,���쐼,3.6,��쐼,8.1,65.3,0,0,0,0,0,0,998.8,1012.9
2020-12-14T02:43:00+09:00,1.1,���쐼,3.6,��쐼,8.4,64.7,0,0,0,0,0,0,998.8,1012.9
2020-12-14T02:44:00+09:00,1.1,�쐼,3.6,��쐼,8.6,63.8,0,0,0,0,0,0,998.8,1012.9
2020-12-14T02:45:00+09:00,1.1,�쐼,3.6,��쐼,8.5,62.6,0,0,0,0,0,0,998.7,1012.8
2020-12-14T02:46:00+09:00,1.1,�쐼,3.6,��쐼,8.5,61.9,0,0,0,0,0,0,998.7,1012.8
2020-12-14T02:47:00+09:00,1,�쐼,3.6,��쐼,8.4,61.5,0,0,0,0,0,0,998.8,1012.9
2020-12-14T02:48:00+09:00,1,�쐼,3.6,��쐼,8.4,61.4,0,0,0,0,0,0,998.8,1012.9
2020-12-14T02:49:00+09:00,1,�쐼,3.6,��쐼,8.3,61.3,0,0,0,0,0,0,998.8,1012.9
2020-12-14T02:50:00+09:00,1.1,�쐼,3.6,��쐼,8.2,61.2,0,0,0,0,0,0,998.8,1012.9
2020-12-14T02:51:00+09:00,1,�쐼,3.6,��쐼,7.8,61.1,0,0,0,0,0,0,998.8,1013
2020-12-14T02:52:00+09:00,0.8,��,2.2,�쐼,7.6,61.7,0,0,0,0,0,0,998.8,1013
2020-12-14T02:53:00+09:00,0.8,�k,2.2,�쐼,7.2,62.2,0,0,0,0,0,0,998.8,1013
2020-12-14T02:54:00+09:00,0.7,�k�k��,1.8,�k��,7.2,63.5,0,0,0,0,0,0,998.8,1013
2020-12-14T02:55:00+09:00,0.6,�k�k��,1.8,�k��,7,64.4,0,0,0,0,0,0,998.8,1013
2020-12-14T02:56:00+09:00,0.6,�k�k��,1.8,�k��,7,65,0,0,0,0,0,0,998.8,1013
2020-12-14T02:57:00+09:00,0.7,�k�k��,1.8,�k��,6.9,65.8,0,0,0,0,0,0,998.8,1013
2020-12-14T02:58:00+09:00,0.6,�k�k��,1.8,�k��,6.9,66.3,0,0,0,0,0,0,998.8,1013
2020-12-14T02:59:00+09:00,0.6,�k�k��,1.8,�k��,6.9,66.6,0,0,0,0,0,0,998.8,1013
2020-12-14T03:00:00+09:00,0.6,�k,1.5,�k,7,67.2,0,0,0,0,0,0,998.9,1013.1
2020-12-14T03:01:00+09:00,0.5,�k,1.5,�k,7,67.4,0,0,0,0,0,0,998.8,1013
2020-12-14T03:02:00+09:00,0.5,�k�k��,1.5,�k,7.1,67.5,0,0,0,0,0,0,998.9,1013.1
2020-12-14T03:03:00+09:00,0.5,�k�k��,1.5,�k,7.1,67.5,0,0,0,0,0,0,998.9,1013.1
2020-12-14T03:04:00+09:00,0.5,�k��,1,�k�k��,7.1,67.6,0,0,0,0,0,0,998.8,1013
2020-12-14T03:05:00+09:00,0.5,�k��,1,�k�k��,6.9,67.4,0,0,0,0,0,0,998.8,1013
2020-12-14T03:06:00+09:00,0.5,���k��,1,�k�k��,6.9,67.3,0,0,0,0,0,0,998.7,1012.9
2020-12-14T03:07:00+09:00,0.4,���k��,0.7,���k��,6.9,67.5,0,0,0,0,0,0,998.8,1013
2020-12-14T03:08:00+09:00,0.4,���k��,0.7,���k��,7.1,67.9,0,0,0,0,0,0,998.7,1012.9
2020-12-14T03:09:00+09:00,0.4,���k��,0.7,���k��,6.9,67.6,0,0,0,0,0,0,998.8,1013
2020-12-14T03:10:00+09:00,0.3,���k��,0.7,���k��,7,67.6,0,0,0,0,0,0,998.8,1013
2020-12-14T03:11:00+09:00,0.3,�k��,0.7,���k��,6.9,67.5,0,0,0,0,0,0,998.8,1013
2020-12-14T03:12:00+09:00,0.2,�É�,0.7,���k��,6.9,67.7,0,0,0,0,0,0,998.7,1012.9
2020-12-14T03:13:00+09:00,0.2,�É�,0.7,���k��,7.3,68.1,0,0,0,0,0,0,998.7,1012.9
2020-12-14T03:14:00+09:00,0.2,�É�,0.7,���k��,7.5,68,0,0,0,0,0,0,998.7,1012.9
2020-12-14T03:15:00+09:00,0.1,�É�,0.5,��쓌,7.3,67.2,0,0,0,0,0,0,998.7,1012.9
2020-12-14T03:16:00+09:00,0.1,�É�,0.5,��쓌,7.2,66.8,0,0,0,0,0,0,998.8,1013
2020-12-14T03:17:00+09:00,0.1,�É�,0.5,��쓌,7.3,66.8,0,0,0,0,0,0,998.8,1013
2020-12-14T03:18:00+09:00,0.1,�É�,0.5,��쓌,7.3,66.8,0,0,0,0,0,0,998.8,1013
2020-12-14T03:19:00+09:00,0.1,�É�,0.5,��쓌,7.1,66.6,0,0,0,0,0,0,998.8,1013
2020-12-14T03:20:00+09:00,0.1,�É�,0.8,�쐼,6.6,65.9,0,0,0,0,0,0,998.8,1013
2020-12-14T03:21:00+09:00,0.2,�É�,0.8,�쐼,6.5,66.8,0,0,0,0,0,0,998.7,1012.9
2020-12-14T03:22:00+09:00,0.2,�É�,0.8,�쐼,6.7,67.8,0,0,0,0,0,0,998.8,1013
2020-12-14T03:23:00+09:00,0.3,��쐼,0.8,�쐼,7.2,68.9,0,0,0,0,0,0,998.7,1012.9
2020-12-14T03:24:00+09:00,0.3,��쐼,0.8,�쐼,7.5,69,0,0,0,0,0,0,998.7,1012.9
2020-12-14T03:25:00+09:00,0.3,��,1.5,��쐼,6.9,67.3,0,0,0,0,0,0,998.7,1012.9
2020-12-14T03:26:00+09:00,0.5,��쐼,1.6,��쐼,6.6,66.8,0,0,0,0,0,0,998.7,1012.9
2020-12-14T03:27:00+09:00,0.6,��쐼,1.6,��쐼,6.7,68.1,0,0,0,0,0,0,998.7,1012.9
2020-12-14T03:28:00+09:00,0.7,��쐼,1.6,��쐼,6.7,68.8,0,0,0,0,0,0,998.7,1012.9
2020-12-14T03:29:00+09:00,0.8,��쐼,1.6,��쐼,6.8,69,0,0,0,0,0,0,998.8,1013
2020-12-14T03:30:00+09:00,0.8,��쐼,1.6,��쐼,6.3,68.3,0,0,0,0,0,0,998.8,1013
2020-12-14T03:31:00+09:00,0.9,��쐼,1.6,��쐼,6.5,69.5,0,0,0,0,0,0,998.8,1013
2020-12-14T03:32:00+09:00,0.9,��쐼,1.6,��쐼,6.6,70.4,0,0,0,0,0,0,998.8,1013
2020-12-14T03:33:00+09:00,0.9,��쐼,1.6,��쐼,6.9,70.4,0,0,0,0,0,0,998.8,1013
2020-12-14T03:34:00+09:00,1,�쐼,1.6,��쐼,6.9,70.2,0,0,0,0,0,0,998.8,1013
2020-12-14T03:35:00+09:00,1,��쐼,1.7,��쓌,6.8,69.8,0,0,0,0,0,0,998.8,1013
2020-12-14T03:36:00+09:00,1,�쐼,1.7,��쓌,6.8,69.6,0,0,0,0,0,0,998.9,1013.1
2020-12-14T03:37:00+09:00,1,�쐼,1.7,��쓌,6.3,68.8,0,0,0,0,0,0,998.9,1013.1
2020-12-14T03:38:00+09:00,1,�쐼,1.8,��,6.2,70,0,0,0,0,0,0,998.9,1013.1
2020-12-14T03:39:00+09:00,1,�쐼,2.2,��,6.1,70.7,0,0,0,0,0,0,998.9,1013.1
2020-12-14T03:40:00+09:00,1.1,�쐼,2.2,��,6.2,71.2,0,0,0,0,0,0,998.9,1013.1
2020-12-14T03:41:00+09:00,1,���쐼,2.2,��,6.3,72.1,0,0,0,0,0,0,998.9,1013.1
2020-12-14T03:42:00+09:00,1,�쐼,2.2,��,6.8,72.8,0,0,0,0,0,0,998.9,1013.1
2020-12-14T03:43:00+09:00,1,�쐼,2.2,��,6.7,72.2,0,0,0,0,0,0,998.9,1013.1
2020-12-14T03:44:00+09:00,1.1,�쐼,2.5,��쐼,6.8,71.6,0,0,0,0,0,0,998.9,1013.1
2020-12-14T03:45:00+09:00,1.2,�쐼,2.6,��쐼,6.9,71.2,0,0,0,0,0,0,998.9,1013.1
2020-12-14T03:46:00+09:00,1.2,�쐼,2.6,��쐼,6.8,70.6,0,0,0,0,0,0,999,1013.2
2020-12-14T03:47:00+09:00,1.2,���쐼,2.6,��쐼,6.3,69.6,0,0,0,0,0,0,998.9,1013.1
2020-12-14T03:48:00+09:00,1.2,���쐼,2.6,��쐼,6.3,70.3,0,0,0,0,0,0,998.9,1013.1
2020-12-14T03:49:00+09:00,1.2,���쐼,2.6,��쐼,6.4,71.3,0,0,0,0,0,0,998.9,1013.1
2020-12-14T03:50:00+09:00,1.2,���쐼,2.6,��쐼,6.5,71.7,0,0,0,0,0,0,998.9,1013.1
2020-12-14T03:51:00+09:00,1.1,���쐼,2.6,��쐼,6.5,71.7,0,0,0,0,0,0,998.9,1013.1
2020-12-14T03:52:00+09:00,1.1,���쐼,2.6,��쐼,6.6,71.7,0,0,0,0,0,0,998.9,1013.1
2020-12-14T03:53:00+09:00,1,��,2.6,��쐼,6.7,71.7,0,0,0,0,0,0,998.9,1013.1
2020-12-14T03:54:00+09:00,1,���k��,2.6,��쐼,6.5,71.3,0,0,0,0,0,0,998.9,1013.1
2020-12-14T03:55:00+09:00,0.9,�k��,2.4,��,6.3,70.8,0,0,0,0,0,0,998.8,1013
2020-12-14T03:56:00+09:00,0.9,�k��,2.4,��,6.1,70.9,0,0,0,0,0,0,998.9,1013.1
2020-12-14T03:57:00+09:00,0.8,�k�k��,2.2,���k��,6.2,71.6,0,0,0,0,0,0,998.9,1013.1
2020-12-14T03:58:00+09:00,0.7,�k,1.7,���쐼,5.9,72,0,0,0,0,0,0,998.9,1013.2
2020-12-14T03:59:00+09:00,0.7,�k,1.4,�k��,5.7,72.3,0,0,0,0,0,0,998.9,1013.2
2020-12-14T04:00:00+09:00,0.7,�k,1.4,�k��,5.6,73,0,0,0,0,0,0,998.9,1013.2
2020-12-14T04:01:00+09:00,0.8,�k,1.4,�k��,5.5,73.6,0,0,0,0,0,0,998.9,1013.2
2020-12-14T04:02:00+09:00,0.8,�k,1.4,�k��,5.4,74.5,0,0,0,0,0,0,998.9,1013.2
2020-12-14T04:03:00+09:00,0.8,�k,1.4,�k��,5.3,75.2,0,0,0,0,0,0,998.9,1013.2
2020-12-14T04:04:00+09:00,0.8,�k,1.4,�k��,5.3,75.7,0,0,0,0,0,0,998.8,1013.1
2020-12-14T04:05:00+09:00,0.8,�k�k��,1.4,�k��,5.2,76.2,0,0,0,0,0,0,998.8,1013.1
2020-12-14T04:06:00+09:00,0.8,�k�k��,1.4,�k��,5.2,76.7,0,0,0,0,0,0,998.9,1013.2
2020-12-14T04:07:00+09:00,0.7,�k�k��,1.4,�k��,5.5,77.7,0,0,0,0,0,0,999,1013.3
2020-12-14T04:08:00+09:00,0.7,�k��,1.4,�k��,5.3,77.6,0,0,0,0,0,0,999,1013.3
2020-12-14T04:09:00+09:00,0.7,�k��,1.4,�k��,5.5,77.9,0,0,0,0,0,0,999,1013.3
2020-12-14T04:10:00+09:00,0.7,�k�k��,1.2,��,5.4,77.8,0,0,0,0,0,0,999.1,1013.4
2020-12-14T04:11:00+09:00,0.7,�k�k��,1.9,�k�k��,5.3,77.7,0,0,0,0,0,0,999,1013.3
2020-12-14T04:12:00+09:00,0.9,�k�k��,2.2,�k�k��,5.4,78,0,0,0,0,0,0,998.9,1013.2
2020-12-14T04:13:00+09:00,1,�k,2.6,�k�k��,5.5,78.1,0,0,0,0,0,0,999,1013.3
2020-12-14T04:14:00+09:00,1.2,�k,2.6,�k�k��,5.6,78.3,0,0,0,0,0,0,999,1013.3
2020-12-14T04:15:00+09:00,1.3,�k,2.6,�k�k��,5.5,78,0,0,0,0,0,0,999,1013.3
2020-12-14T04:16:00+09:00,1.3,�k,2.6,�k�k��,5.5,77.8,0,0,0,0,0,0,999,1013.3
2020-12-14T04:17:00+09:00,1.2,�k,2.6,�k�k��,5.5,77.9,0,0,0,0,0,0,999,1013.3
2020-12-14T04:18:00+09:00,1.2,�k,2.6,�k�k��,5.4,78,0,0,0,0,0,0,999,1013.3
2020-12-14T04:19:00+09:00,1.3,�k�k��,2.6,�k�k��,5.4,77.6,0,0,0,0,0,0,999.1,1013.4
2020-12-14T04:20:00+09:00,1.4,�k�k��,2.7,�k�k��,5.4,77.9,0,0,0,0,0,0,999.1,1013.4
2020-12-14T04:21:00+09:00,1.5,�k�k��,2.7,�k�k��,5.4,78,0,0,0,0,0,0,999.2,1013.5
2020-12-14T04:22:00+09:00,1.5,�k�k��,2.7,�k�k��,5.3,77.8,0,0,0,0,0,0,999.2,1013.5
2020-12-14T04:23:00+09:00,1.4,�k�k��,2.8,�k,5.3,78.1,0,0,0,0,0,0,999.2,1013.5
2020-12-14T04:24:00+09:00,1.3,�k�k��,2.8,�k,5.4,78.4,0,0,0,0,0,0,999.2,1013.5
2020-12-14T04:25:00+09:00,1.2,�k,2.8,�k,5.3,78.7,0,0,0,0,0,0,999.2,1013.5
2020-12-14T04:26:00+09:00,1.2,�k,2.8,�k,5.3,78.4,0,0,0,0,0,0,999.2,1013.5
2020-12-14T04:27:00+09:00,1.2,�k,2.8,�k,5.4,78.9,0,0,0,0,0,0,999.3,1013.6
2020-12-14T04:28:00+09:00,1.2,�k,2.8,�k,5.3,78.8,0,0,0,0,0,0,999.3,1013.6
2020-12-14T04:29:00+09:00,1.2,�k,2.8,�k,5.4,79,0,0,0,0,0,0,999.2,1013.5
2020-12-14T04:30:00+09:00,1.1,�k�k��,2.8,�k,5.4,79,0,0,0,0,0,0,999.2,1013.5
2020-12-14T04:31:00+09:00,1.1,�k�k��,2.8,�k,5.4,79,0,0,0,0,0,0,999.2,1013.5
2020-12-14T04:32:00+09:00,1,�k�k��,2.8,�k,5.4,78.9,0,0,0,0,0,0,999.2,1013.5
2020-12-14T04:33:00+09:00,0.9,�k�k��,2.2,�k��,5.5,79,0,0,0,0,0,0,999.2,1013.5
2020-12-14T04:34:00+09:00,0.9,�k�k��,1.8,�k��,5.5,79,0,0,0,0,0,0,999.2,1013.5
2020-12-14T04:35:00+09:00,1,�k�k��,1.8,�k��,5.5,78.9,0,0,0,0,0,0,999.1,1013.4
2020-12-14T04:36:00+09:00,1.1,�k��,1.8,�k��,5.5,78.7,0,0,0,0,0,0,999.1,1013.4
2020-12-14T04:37:00+09:00,1.1,�k��,1.8,�k��,5.5,78.7,0,0,0,0,0,0,999.1,1013.4
2020-12-14T04:38:00+09:00,1.1,�k��,1.8,�k��,5.5,78.6,0,0,0,0,0,0,999.1,1013.4
2020-12-14T04:39:00+09:00,1.1,�k��,1.8,�k��,5.4,78.5,0,0,0,0,0,0,999.1,1013.4
2020-12-14T04:40:00+09:00,1.2,�k��,1.9,�k��,5.3,78.3,0,0,0,0,0,0,999,1013.3
2020-12-14T04:41:00+09:00,1.2,�k�k��,2,�k��,5.2,78.7,0,0,0,0,0,0,999.1,1013.4
2020-12-14T04:42:00+09:00,1.3,�k�k��,2.9,�k,5,78.8,0,0,0,0,0,0,999.1,1013.4
2020-12-14T04:43:00+09:00,1.4,�k�k��,3.1,�k�k��,5.1,79.4,0,0,0,0,0,0,999.1,1013.4
2020-12-14T04:44:00+09:00,1.4,�k�k��,3.1,�k�k��,5,80,0,0,0,0,0,0,999.1,1013.4
2020-12-14T04:45:00+09:00,1.5,�k�k��,3.5,�k,5,80.2,0,0,0,0,0,0,999.2,1013.5
2020-12-14T04:46:00+09:00,1.6,�k�k��,3.5,�k,5,80.7,0,0,0,0,0,0,999.2,1013.5
2020-12-14T04:47:00+09:00,1.7,�k�k��,3.5,�k,5,80.9,0,0,0,0,0,0,999.2,1013.5
2020-12-14T04:48:00+09:00,1.7,�k�k��,3.5,�k,5,81.1,0,0,0,0,0,0,999.3,1013.6
2020-12-14T04:49:00+09:00,1.7,�k�k��,3.5,�k,5.2,81.5,0,0,0,0,0,0,999.3,1013.6
2020-12-14T04:50:00+09:00,1.7,�k�k��,3.5,�k,5.3,81.5,0,0,0,0,0,0,999.3,1013.6
2020-12-14T04:51:00+09:00,1.7,�k�k��,3.5,�k,5.3,81.5,0,0,0,0,0,0,999.3,1013.6
2020-12-14T04:52:00+09:00,1.7,�k�k��,3.5,�k,5.2,81.3,0,0,0,0,0,0,999.3,1013.6
2020-12-14T04:53:00+09:00,1.7,�k�k��,3.5,�k,5.1,80.9,0,0,0,0,0,0,999.3,1013.6
2020-12-14T04:54:00+09:00,1.9,�k�k��,3.7,�k��,5.1,80.9,0,0,0,0,0,0,999.3,1013.6
2020-12-14T04:55:00+09:00,1.9,�k�k��,3.7,�k��,5,81,0,0,0,0,0,0,999.3,1013.6
2020-12-14T04:56:00+09:00,1.9,�k�k��,3.7,�k��,5,81.3,0,0,0,0,0,0,999.3,1013.6
2020-12-14T04:57:00+09:00,1.7,�k��,3.7,�k��,5,81.3,0,0,0,0,0,0,999.3,1013.6
2020-12-14T04:58:00+09:00,1.8,�k��,3.7,�k��,4.9,81.5,0,0,0,0,0,0,999.3,1013.6
2020-12-14T04:59:00+09:00,1.9,�k��,3.7,�k��,5.1,82,0,0,0,0,0,0,999.2,1013.5
2020-12-14T05:00:00+09:00,1.9,�k��,3.7,�k��,5,82.1,0,0,0,0,0,0,999.3,1013.6
2020-12-14T05:01:00+09:00,1.8,�k��,3.7,�k��,4.9,82.1,0,0,0,0,0,0,999.2,1013.5
2020-12-14T05:02:00+09:00,1.8,�k��,3.7,�k��,5,82.3,0,0,0,0,0,0,999.2,1013.5
2020-12-14T05:03:00+09:00,1.7,�k�k��,3.7,�k��,4.8,82.2,0,0,0,0,0,0,999.2,1013.5
2020-12-14T05:04:00+09:00,1.6,�k�k��,3.1,�k��,4.8,82.5,0,0,0,0,0,0,999.2,1013.5
2020-12-14T05:05:00+09:00,1.6,�k�k��,3.1,�k��,4.9,82.7,0,0,0,0,0,0,999.2,1013.5
2020-12-14T05:06:00+09:00,1.6,�k�k��,3.1,�k��,4.8,82.6,0,0,0,0,0,0,999.3,1013.6
2020-12-14T05:07:00+09:00,1.7,�k�k��,3.1,�k��,4.8,82.9,0,0,0,0,0,0,999.3,1013.6
2020-12-14T05:08:00+09:00,1.6,�k�k��,3.1,�k��,4.8,82.8,0,0,0,0,0,0,999.3,1013.6
2020-12-14T05:09:00+09:00,1.4,�k�k��,3.1,�k��,4.8,83,0,0,0,0,0,0,999.3,1013.6
2020-12-14T05:10:00+09:00,1.3,�k�k��,2.7,�k��,4.8,83.2,0,0,0,0,0,0,999.3,1013.6
2020-12-14T05:11:00+09:00,1.3,�k�k��,2.7,�k��,4.8,83.2,0,0,0,0,0,0,999.3,1013.6
2020-12-14T05:12:00+09:00,1.2,�k�k��,2.7,�k��,4.7,83.2,0,0,0,0,0,0,999.3,1013.6
2020-12-14T05:13:00+09:00,1.1,�k�k��,2.7,�k��,4.7,83.2,0,0,0,0,0,0,999.3,1013.6
2020-12-14T05:14:00+09:00,1,�k�k��,2.7,�k��,4.7,83.4,0,0,0,0,0,0,999.3,1013.6
2020-12-14T05:15:00+09:00,0.8,�k,2.7,�k��,4.7,83.5,0,0,0,0,0,0,999.4,1013.7
2020-12-14T05:16:00+09:00,0.7,�k,2.4,�k��,4.9,84,0,0,0,0,0,0,999.4,1013.7